Location: Churchill Northern Studies Centre
(58.7378°N, 93.8201°W)
Time: 04:15:02
(UTC-05:00)

ISS - Pass Details

Date: 07 October 2017
Orbit: 401 x 408 km, 51.6° (Epoch: 19 October)

Event Time Altitude Azimuth Distance (km) Brightness Sun altitude
Rises 19:37:54 0° 255° (WSW) 2,326 1.6 -9.6°
Reaches altitude 10° 19:40:14 10° 241° (WSW) 1,467 -0.1 -9.9°
Maximum altitude 19:42:54 23° 186° (S) 920 -2.0 -10.2°
Enters shadow 19:45:24 11° 134° (SE) 1,416 -1.5 -10.5°
